Weather History for Klamath Falls, OR

Change the Weather History Date:

Monday, December 31, 2012

  Actual Average Record
Temperature  
Mean Temperature 11 °F 29 °F  
Max Temperature 21 °F 38 °F 55 °F (1996)
Min Temperature 1 °F 20 °F -9 °F (1974)
Degree Days  
Heating Degree Days 54 36  
Month to date heating degree days 1128 1102  
Since 1 July heating degree days 2598 2901  
Cooling Degree Days 0 0  
Month to date cooling degree days 0 0  
Year to date cooling degree days 177 169  
Moisture  
Dew Point 9 °F    
Average Humidity 93    
Maximum Humidity 100    
Minimum Humidity 84    
Precipitation  
Precipitation T in 0.04 in 0.38 in (1981)
Month to date precipitation 1.67 1.45  
Year to date precipitation 9.78 14.96  
Snow  
Snow 0.00 in - - ()
Year to date snowfall  
Since 1 July snowfall  
Snow Depth 3.00 in    
Sea Level Pressure  
Sea Level Pressure 30.30 in    
Wind  
Wind Speed 3 mph (NNW)    
Max Wind Speed 13 mph    
Max Gust Speed 15 mph    
Visibility 5 miles    
Events Fog , Snow    
T = Trace of Precipitation, MM = Missing Value Source: NWS Daily Summary

Daily Weather History Graph

Daily Weather History Graph

Search for Another Location

Airport:

Trip Planner

Search our weather history database for the weather conditions in past years. The results will help you decide how hot, cold, wet, or windy it might be!

Date:

Astronomy

Dec. 31, 2012 Rise Set
Actual Time 7:35 AM PST 4:45 PM PST
Civil Twilight 7:03 AM PST 5:16 PM PST
Nautical Twilight 6:28 AM PST 5:52 PM PST
Astronomical Twilight 5:54 AM PST 6:26 PM PST
Moon 8:25 PM PST (12/31) 9:16 AM PST (12/31)
Length of Visible Light 10h 13m
Length of Day
9h 09m
Waning Gibbous, 89% of the Moon is Illuminated
Dec 31
Waning Gibbous
Jan 4
Last Quarter
Jan 11
New
Jan 18
First Quarter
Jan 26
Full

Hourly Weather History & Observations

Time (PST) Temp. Windchill Dew Point Humidity Pressure Visibility Wind Dir Wind Speed Gust Speed Precip Events Conditions
12:53 AM 3.0 °F -6.4 °F -0.0 °F 87% 30.34 in 10.0 mi East 4.6 mph - N/A   Clear
1:53 AM 1.9 °F -10.6 °F -0.9 °F 88% 30.38 in 1.5 mi NW 6.9 mph - N/A   Partly Cloudy
1:56 AM 1.4 °F -11.3 °F 1.4 °F 100% 30.24 in 0.8 mi NW 6.9 mph - N/A   Mist
2:08 AM 1.4 °F - 1.4 °F 100% 30.24 in 1.0 mi Calm Calm - N/A   Mist
2:24 AM 3.2 °F - 1.4 °F 92% 30.24 in 0.5 mi Calm Calm - N/A Fog Light Freezing Fog
2:40 AM 1.4 °F - 1.4 °F 100% 30.25 in 1.0 mi Calm Calm - N/A   Mist
2:53 AM 3.0 °F -4.4 °F 1.0 °F 91% 30.38 in 2.5 mi ENE 3.5 mph - N/A   Mostly Cloudy
2:57 AM 3.2 °F - 1.4 °F 92% 30.24 in 6.0 mi Calm Calm - N/A   Scattered Clouds
3:53 AM 1.9 °F -7.6 °F -0.0 °F 91% 30.38 in 10.0 mi NW 4.6 mph - N/A   Clear
4:09 AM 3.2 °F -4.2 °F 1.4 °F 92% 30.24 in 2.5 mi NNW 3.5 mph - N/A   Partly Cloudy
4:13 AM 3.2 °F -6.2 °F 3.2 °F 100% 30.25 in 0.8 mi NNW 4.6 mph - N/A   Partly Cloudy
4:19 AM 3.2 °F -9.1 °F 3.2 °F 100% 30.25 in 0.2 mi NW 6.9 mph - N/A Fog Light Freezing Fog
4:31 AM 6.8 °F - 5.0 °F 92% 30.24 in 0.2 mi Calm Calm - N/A Fog Light Freezing Fog
4:39 AM 6.8 °F - 3.2 °F 85% 30.24 in 0.2 mi Calm Calm - N/A Fog Light Freezing Fog
4:48 AM 5.0 °F -2.1 °F 3.2 °F 92% 30.23 in 1.0 mi East 3.5 mph - N/A   Mist
4:49 AM 5.0 °F - 3.0 °F 92% 30.39 in 1.2 mi Calm Calm - N/A   Overcast
4:52 AM 5.0 °F - 3.2 °F 92% 30.23 in 3.0 mi Calm Calm - N/A   Overcast
4:56 AM 3.2 °F - 3.2 °F 100% 30.23 in 1.8 mi Calm Calm - N/A   Overcast
5:05 AM 5.0 °F - 3.2 °F 92% 30.23 in 0.5 mi Calm Calm - N/A Fog Light Freezing Fog
5:15 AM 5.0 °F - 3.2 °F 92% 30.23 in 1.0 mi Calm Calm - N/A   Overcast
5:23 AM 6.8 °F - 3.2 °F 85% 30.23 in 3.0 mi Calm Calm - N/A   Overcast
5:53 AM 8.1 °F - 6.1 °F 92% 30.38 in 9.0 mi Calm Calm - N/A   Overcast
6:00 AM 8.6 °F - 6.8 °F 92% 30.23 in 9.0 mi Calm Calm - N/A   Overcast
6:27 AM 10.4 °F - 8.6 °F 92% 30.24 in 10.0 mi Calm Calm - N/A   Overcast
6:53 AM 10.9 °F - 9.0 °F 92% 30.42 in 5.0 mi Calm Calm - N/A   Overcast
7:53 AM 10.9 °F - 9.0 °F 92% 30.43 in 3.0 mi Calm Calm - N/A   Overcast
8:35 AM 12.2 °F - 10.4 °F 92% 30.26 in 0.8 mi Calm Calm - N/A   Overcast
8:53 AM 14.0 °F - 12.9 °F 95% 30.43 in 0.5 mi Calm Calm - N/A Fog Light Freezing Fog
9:38 AM 15.8 °F 10.2 °F 14.0 °F 93% 30.28 in 2.0 mi SE 3.5 mph - N/A   Overcast
9:53 AM 16.0 °F - 15.1 °F 96% 30.44 in 2.0 mi Calm Calm - N/A   Overcast
10:30 AM 15.8 °F 7.2 °F 15.8 °F 100% 30.27 in 7.0 mi SE 5.8 mph - N/A   Overcast
10:53 AM 16.0 °F 10.4 °F 15.1 °F 96% 30.43 in 7.0 mi South 3.5 mph - N/A   Overcast
11:53 AM 16.0 °F 10.4 °F 15.1 °F 96% 30.42 in 7.0 mi SSW 3.5 mph - N/A   Overcast
12:45 PM 17.6 °F - 15.8 °F 93% 30.21 in 7.0 mi Calm Calm - N/A   Mostly Cloudy
12:53 PM 17.1 °F 5.0 °F 16.0 °F 96% 30.40 in 7.0 mi WNW 10.4 mph - N/A   Mostly Cloudy
1:30 PM 17.6 °F - 15.8 °F 93% 30.19 in 10.0 mi Calm Calm - N/A   Mostly Cloudy
1:46 PM 17.6 °F 12.3 °F 15.8 °F 93% 30.18 in 10.0 mi WSW 3.5 mph - N/A   Mostly Cloudy
1:53 PM 18.0 °F - 16.0 °F 92% 30.35 in 10.0 mi Calm Calm - N/A   Mostly Cloudy
2:53 PM 19.0 °F - 17.1 °F 92% 30.35 in 10.0 mi Calm Calm - N/A   Mostly Cloudy
3:53 PM 19.9 °F - 16.0 °F 85% 30.35 in 10.0 mi Calm Calm - N/A   Mostly Cloudy
4:53 PM 19.9 °F - 16.0 °F 85% 30.35 in 10.0 mi Calm Calm - N/A   Mostly Cloudy
6:53 PM 19.0 °F - 16.0 °F 88% 30.34 in 10.0 mi Calm Calm - N/A   Mostly Cloudy
7:53 PM 19.0 °F - 16.0 °F 88% 30.35 in 10.0 mi Calm Calm - N/A   Overcast
8:53 PM 19.0 °F 12.3 °F 17.1 °F 92% 30.35 in 9.0 mi NNW 4.6 mph - N/A   Overcast
9:17 PM 19.4 °F 11.5 °F 17.6 °F 93% 30.22 in 7.0 mi North 5.8 mph - 0.00 in Snow Light Snow
10:00 PM 19.4 °F 9.5 °F 17.6 °F 93% 30.23 in 9.0 mi North 8.1 mph - 0.00 in   Overcast
10:53 PM 19.0 °F 6.8 °F 17.1 °F 92% 30.36 in 10.0 mi NNW 11.5 mph - 0.00 in   Overcast
11:18 PM 17.6 °F 7.3 °F 15.8 °F 93% 30.23 in 10.0 mi North 8.1 mph - N/A   Scattered Clouds
11:53 PM 15.1 °F 6.4 °F 12.9 °F 91% 30.37 in 10.0 mi NNW 5.8 mph - N/A   Clear